Time,TemperatureF,DewpointF,PressureIn,WindDirection,WindDirectionDegrees,WindSpeedMPH,WindSpeedGustMPH,Humidity,HourlyPrecipIn,Conditions,Clouds,dailyrainin,SoftwareType,DateUTC
2013-04-03 00:00:00,53.3,49.5,29.52,NW,323,5.0,15.0,87,0.01,,,0.00,VWS V14.01,2013-04-02 22:00:00,
2013-04-03 00:04:00,53.5,49.7,29.52,WNW,296,7.0,15.0,87,0.01,,,0.00,VWS V14.01,2013-04-02 22:04:00,
2013-04-03 00:09:00,53.6,50.1,29.52,NW,322,4.0,16.0,88,0.01,,,0.00,VWS V14.01,2013-04-02 22:09:00,
2013-04-03 00:10:00,53.6,50.1,29.52,WNW,302,9.0,16.0,88,0.01,,,0.00,VWS V14.01,2013-04-02 22:10:00,
2013-04-03 00:14:00,53.6,50.1,29.53,WNW,300,10.0,15.0,88,0.01,,,0.00,VWS V14.01,2013-04-02 22:14:00,
2013-04-03 00:19:00,53.4,49.9,29.52,NNW,331,8.0,15.0,88,0.01,,,0.00,VWS V14.01,2013-04-02 22:19:00,
2013-04-03 00:20:00,53.5,50.0,29.52,NW,305,15.0,20.0,88,0.01,,,0.00,VWS V14.01,2013-04-02 22:20:00,
2013-04-03 00:24:00,53.6,50.1,29.52,NW,325,3.0,16.0,88,0.00,,,0.00,VWS V14.01,2013-04-02 22:24:00,
2013-04-03 00:29:00,53.7,50.2,29.53,NW,317,10.0,16.0,88,0.00,,,0.00,VWS V14.01,2013-04-02 22:29:00,
2013-04-03 00:30:00,53.7,50.2,29.53,West,273,4.0,16.0,88,0.00,,,0.00,VWS V14.01,2013-04-02 22:30:00,
2013-04-03 00:34:00,53.7,50.2,29.53,NW,311,8.0,15.0,88,0.00,,,0.00,VWS V14.01,2013-04-02 22:34:00,
2013-04-03 00:39:00,53.7,50.2,29.53,NNW,335,8.0,15.0,88,0.00,,,0.00,VWS V14.01,2013-04-02 22:39:00,
2013-04-03 00:40:00,53.7,50.5,29.53,North,350,10.0,15.0,89,0.00,,,0.00,VWS V14.01,2013-04-02 22:40:00,
2013-04-03 00:44:00,53.7,50.5,29.53,NNW,330,7.0,12.0,89,0.00,,,0.00,VWS V14.01,2013-04-02 22:44:00,
2013-04-03 00:49:00,53.7,50.5,29.53,WNW,291,16.0,16.0,89,0.00,,,0.00,VWS V14.01,2013-04-02 22:49:00,
2013-04-03 00:50:00,53.8,50.3,29.53,NW,314,10.0,16.0,88,0.00,,,0.00,VWS V14.01,2013-04-02 22:50:00,
2013-04-03 00:54:00,53.7,50.5,29.54,NW,311,9.0,13.0,89,0.00,,,0.00,VWS V14.01,2013-04-02 22:54:00,
2013-04-03 00:59:00,53.7,50.5,29.53,WNW,302,4.0,13.0,89,0.00,,,0.00,VWS V14.01,2013-04-02 22:59:00,
2013-04-03 01:00:00,53.6,50.4,29.53,WNW,291,9.0,13.0,89,0.00,,,0.00,VWS V14.01,2013-04-02 23:00:00,
2013-04-03 01:04:00,53.4,50.2,29.53,NNW,332,12.0,12.0,89,0.00,,,0.00,VWS V14.01,2013-04-02 23:04:00,
2013-04-03 01:09:00,53.4,50.2,29.54,WNW,300,13.0,17.0,89,0.00,,,0.00,VWS V14.01,2013-04-02 23:09:00,
2013-04-03 01:10:00,53.4,50.2,29.54,NNW,333,11.0,17.0,89,0.00,,,0.00,VWS V14.01,2013-04-02 23:10:00,
2013-04-03 01:14:00,53.4,50.2,29.53,NNW,331,6.0,12.0,89,0.00,,,0.00,VWS V14.01,2013-04-02 23:14:00,
2013-04-03 01:19:00,53.4,50.5,29.54,NW,321,5.0,12.0,90,0.00,,,0.00,VWS V14.01,2013-04-02 23:19:00,
2013-04-03 01:20:00,53.4,50.5,29.54,North,5,8.0,13.0,90,0.00,,,0.00,VWS V14.01,2013-04-02 23:20:00,
2013-04-03 01:25:00,53.5,50.6,29.53,NW,322,10.0,13.0,90,0.00,,,0.00,VWS V14.01,2013-04-02 23:25:00,
2013-04-03 01:30:00,53.6,50.7,29.54,NW,325,6.0,13.0,90,0.00,,,0.00,VWS V14.01,2013-04-02 23:30:00,
2013-04-03 01:35:00,53.7,50.8,29.54,NW,319,11.0,16.0,90,0.00,,,0.00,VWS V14.01,2013-04-02 23:35:00,
2013-04-03 01:40:00,53.8,50.9,29.54,WNW,300,10.0,16.0,90,0.00,,,0.00,VWS V14.01,2013-04-02 23:40:00,
2013-04-03 01:45:00,53.9,50.7,29.54,West,280,9.0,15.0,89,0.00,,,0.00,VWS V14.01,2013-04-02 23:45:00,
2013-04-03 01:50:00,54.0,51.1,29.54,NW,324,8.0,15.0,90,0.00,,,0.00,VWS V14.01,2013-04-02 23:50:00,
2013-04-03 01:55:00,54.1,51.2,29.54,NW,309,6.0,12.0,90,0.00,,,0.00,VWS V14.01,2013-04-02 23:55:00,
2013-04-03 02:00:00,54.1,51.2,29.54,NW,311,12.0,16.0,90,0.00,,,0.00,VWS V14.01,2013-04-03 00:00:00,
2013-04-03 02:05:00,54.0,51.1,29.54,North,355,6.0,12.0,90,0.01,,,0.01,VWS V14.01,2013-04-03 00:05:00,
2013-04-03 02:10:00,54.0,51.1,29.54,NW,315,7.0,13.0,90,0.01,,,0.01,VWS V14.01,2013-04-03 00:10:00,
2013-04-03 02:15:00,54.0,51.4,29.54,NW,325,7.0,18.0,91,0.02,,,0.02,VWS V14.01,2013-04-03 00:15:00,
2013-04-03 02:20:00,54.0,51.4,29.54,NW,319,8.0,18.0,91,0.02,,,0.02,VWS V14.01,2013-04-03 00:20:00,
2013-04-03 02:25:00,53.8,51.2,29.54,NW,317,8.0,15.0,91,0.03,,,0.03,VWS V14.01,2013-04-03 00:25:00,
2013-04-03 02:30:00,53.8,51.5,29.54,NW,319,6.0,6.0,92,0.04,,,0.04,VWS V14.01,2013-04-03 00:30:00,
2013-04-03 02:35:00,53.8,51.5,29.54,NNW,335,6.0,10.0,92,0.04,,,0.04,VWS V14.01,2013-04-03 00:35:00,
2013-04-03 02:40:00,53.7,51.1,29.54,NNW,347,17.0,17.0,91,0.04,,,0.04,VWS V14.01,2013-04-03 00:40:00,
2013-04-03 02:46:00,53.6,51.0,29.55,WNW,297,9.0,14.0,91,0.04,,,0.04,VWS V14.01,2013-04-03 00:46:00,
2013-04-03 02:50:00,53.6,51.0,29.55,NW,320,6.0,17.0,91,0.04,,,0.04,VWS V14.01,2013-04-03 00:50:00,
2013-04-03 02:51:00,53.6,51.0,29.55,WNW,300,7.0,8.0,91,0.04,,,0.04,VWS V14.01,2013-04-03 00:51:00,
2013-04-03 02:56:00,53.6,51.0,29.55,WNW,302,1.0,13.0,91,0.04,,,0.04,VWS V14.01,2013-04-03 00:56:00,
2013-04-03 03:00:00,53.2,50.7,29.55,WNW,298,14.0,18.0,91,0.04,,,0.04,VWS V14.01,2013-04-03 01:00:00,
2013-04-03 03:02:00,53.1,50.5,29.55,WNW,286,17.0,18.0,91,0.04,,,0.04,VWS V14.01,2013-04-03 01:02:00,
2013-04-03 03:07:00,53.1,50.8,29.55,West,281,10.0,20.0,92,0.04,,,0.04,VWS V14.01,2013-04-03 01:07:00,
2013-04-03 03:10:00,53.2,50.9,29.55,WNW,287,12.0,20.0,92,0.05,,,0.05,VWS V14.01,2013-04-03 01:10:00,
2013-04-03 03:12:00,53.2,50.9,29.55,West,275,11.0,15.0,92,0.04,,,0.05,VWS V14.01,2013-04-03 01:12:00,
2013-04-03 03:17:00,53.2,50.9,29.55,NW,322,9.0,20.0,92,0.05,,,0.06,VWS V14.01,2013-04-03 01:17:00,
2013-04-03 03:20:00,53.2,50.9,29.55,NW,304,17.0,20.0,92,0.05,,,0.06,VWS V14.01,2013-04-03 01:20:00,
2013-04-03 03:22:00,53.3,51.0,29.55,NW,310,8.0,17.0,92,0.05,,,0.07,VWS V14.01,2013-04-03 01:22:00,
2013-04-03 03:27:00,53.0,51.0,29.55,WNW,292,15.0,22.0,93,0.07,,,0.09,VWS V14.01,2013-04-03 01:27:00,
2013-04-03 03:30:00,52.9,50.9,29.55,WNW,294,15.0,22.0,93,0.08,,,0.10,VWS V14.01,2013-04-03 01:30:00,
2013-04-03 03:32:00,52.8,50.8,29.55,NW,309,10.0,15.0,93,0.07,,,0.11,VWS V14.01,2013-04-03 01:32:00,
2013-04-03 03:37:00,52.8,50.8,29.55,NW,313,6.0,16.0,93,0.08,,,0.12,VWS V14.01,2013-04-03 01:37:00,
2013-04-03 03:40:00,52.9,51.2,29.55,WNW,302,15.0,18.0,94,0.08,,,0.12,VWS V14.01,2013-04-03 01:40:00,
2013-04-03 03:42:00,53.0,51.3,29.55,WNW,297,12.0,18.0,94,0.08,,,0.12,VWS V14.01,2013-04-03 01:42:00,
2013-04-03 03:48:00,51.7,49.8,29.55,NW,324,7.0,20.0,93,0.08,,,0.12,VWS V14.01,2013-04-03 01:48:00,
2013-04-03 03:50:00,51.3,49.3,29.55,WNW,300,9.0,20.0,93,0.09,,,0.13,VWS V14.01,2013-04-03 01:50:00,
2013-04-03 03:53:00,51.2,49.2,29.55,NW,313,8.0,15.0,93,0.10,,,0.14,VWS V14.01,2013-04-03 01:53:00,
2013-04-03 03:58:00,51.4,49.5,29.55,NW,319,6.0,19.0,93,0.12,,,0.16,VWS V14.01,2013-04-03 01:58:00,
2013-04-03 04:00:00,51.6,49.7,29.55,NW,315,6.0,19.0,93,0.14,,,0.18,VWS V14.01,2013-04-03 02:00:00,
2013-04-03 04:03:00,51.7,49.8,29.56,NW,307,6.0,10.0,93,0.15,,,0.19,VWS V14.01,2013-04-03 02:03:00,
2013-04-03 04:08:00,52.0,50.3,29.55,NW,309,11.0,14.0,94,0.18,,,0.22,VWS V14.01,2013-04-03 02:08:00,
2013-04-03 04:10:00,52.2,50.5,29.55,WNW,297,6.0,18.0,94,0.20,,,0.24,VWS V14.01,2013-04-03 02:10:00,
2013-04-03 04:13:00,52.2,50.5,29.55,North,351,11.0,13.0,94,0.20,,,0.25,VWS V14.01,2013-04-03 02:13:00,
2013-04-03 04:18:00,52.2,50.5,29.55,NW,317,8.0,17.0,94,0.22,,,0.27,VWS V14.01,2013-04-03 02:18:00,
2013-04-03 04:20:00,52.4,50.7,29.55,WNW,292,12.0,17.0,94,0.23,,,0.28,VWS V14.01,2013-04-03 02:20:00,
2013-04-03 04:23:00,52.3,50.6,29.56,WNW,297,13.0,17.0,94,0.22,,,0.28,VWS V14.01,2013-04-03 02:23:00,
2013-04-03 04:28:00,51.9,50.2,29.56,NW,306,20.0,20.0,94,0.23,,,0.29,VWS V14.01,2013-04-03 02:28:00,
2013-04-03 04:30:00,51.9,50.2,29.56,NW,309,11.0,20.0,94,0.23,,,0.29,VWS V14.01,2013-04-03 02:30:00,
2013-04-03 04:33:00,52.0,50.0,29.56,WNW,303,8.0,14.0,93,0.20,,,0.30,VWS V14.01,2013-04-03 02:33:00,
2013-04-03 04:38:00,52.1,50.4,29.56,NW,311,7.0,14.0,94,0.20,,,0.30,VWS V14.01,2013-04-03 02:38:00,
2013-04-03 04:40:00,52.2,50.5,29.56,WNW,282,8.0,14.0,94,0.20,,,0.30,VWS V14.01,2013-04-03 02:40:00,
2013-04-03 04:43:00,52.2,50.5,29.56,NW,311,10.0,11.0,94,0.18,,,0.30,VWS V14.01,2013-04-03 02:43:00,
2013-04-03 04:48:00,52.3,50.3,29.56,WNW,287,11.0,14.0,93,0.18,,,0.30,VWS V14.01,2013-04-03 02:48:00,
2013-04-03 04:50:00,52.3,50.3,29.56,WNW,294,10.0,14.0,93,0.18,,,0.30,VWS V14.01,2013-04-03 02:50:00,
2013-04-03 04:53:00,52.3,50.3,29.56,WNW,283,8.0,12.0,93,0.17,,,0.30,VWS V14.01,2013-04-03 02:53:00,
2013-04-03 04:58:00,52.3,50.3,29.56,NNW,327,5.0,14.0,93,0.17,,,0.30,VWS V14.01,2013-04-03 02:58:00,
2013-04-03 05:00:00,52.2,50.2,29.56,NW,313,13.0,14.0,93,0.17,,,0.30,VWS V14.01,2013-04-03 03:00:00,
2013-04-03 05:03:00,52.3,50.3,29.56,NW,306,12.0,14.0,93,0.12,,,0.30,VWS V14.01,2013-04-03 03:03:00,
2013-04-03 05:08:00,52.3,50.0,29.56,West,280,12.0,14.0,92,0.12,,,0.30,VWS V14.01,2013-04-03 03:08:00,
2013-04-03 05:10:00,52.3,50.0,29.56,WNW,293,10.0,14.0,92,0.12,,,0.30,VWS V14.01,2013-04-03 03:10:00,
2013-04-03 05:13:00,52.4,50.2,29.56,WNW,292,14.0,14.0,92,0.06,,,0.30,VWS V14.01,2013-04-03 03:13:00,
2013-04-03 05:18:00,52.5,50.2,29.56,NW,304,8.0,15.0,92,0.06,,,0.30,VWS V14.01,2013-04-03 03:18:00,
2013-04-03 05:20:00,52.6,50.3,29.56,WNW,302,13.0,15.0,92,0.06,,,0.30,VWS V14.01,2013-04-03 03:20:00,
2013-04-03 05:23:00,52.7,50.5,29.56,NNW,334,10.0,14.0,92,0.02,,,0.30,VWS V14.01,2013-04-03 03:23:00,
2013-04-03 05:28:00,52.9,50.6,29.56,NW,324,7.0,14.0,92,0.02,,,0.30,VWS V14.01,2013-04-03 03:28:00,
2013-04-03 05:30:00,52.8,50.5,29.56,NW,317,6.0,14.0,92,0.02,,,0.30,VWS V14.01,2013-04-03 03:30:00,
2013-04-03 05:33:00,52.9,50.6,29.56,NW,325,10.0,11.0,92,0.01,,,0.30,VWS V14.01,2013-04-03 03:33:00,
2013-04-03 05:38:00,53.2,50.7,29.56,West,279,9.0,12.0,91,0.01,,,0.30,VWS V14.01,2013-04-03 03:38:00,
2013-04-03 05:40:00,53.2,50.7,29.56,North,349,5.0,12.0,91,0.01,,,0.30,VWS V14.01,2013-04-03 03:40:00,
2013-04-03 05:43:00,53.4,50.8,29.56,NW,314,10.0,17.0,91,0.00,,,0.30,VWS V14.01,2013-04-03 03:43:00,
2013-04-03 05:48:00,53.5,50.9,29.57,NW,315,5.0,17.0,91,0.00,,,0.30,VWS V14.01,2013-04-03 03:48:00,
2013-04-03 05:50:00,53.4,50.8,29.57,NNW,344,10.0,17.0,91,0.00,,,0.30,VWS V14.01,2013-04-03 03:50:00,
2013-04-03 05:53:00,53.5,50.9,29.57,WNW,303,10.0,14.0,91,0.00,,,0.30,VWS V14.01,2013-04-03 03:53:00,
2013-04-03 05:58:00,53.6,51.0,29.57,NW,313,9.0,14.0,91,0.00,,,0.30,VWS V14.01,2013-04-03 03:58:00,
2013-04-03 06:00:00,53.6,51.0,29.57,NNW,345,5.0,14.0,91,0.00,,,0.30,VWS V14.01,2013-04-03 04:00:00,
2013-04-03 06:05:00,53.5,50.9,29.57,NW,320,8.0,12.0,91,0.00,,,0.30,VWS V14.01,2013-04-03 04:05:00,
2013-04-03 06:10:00,53.2,50.7,29.57,NNW,344,7.0,12.0,91,0.00,,,0.30,VWS V14.01,2013-04-03 04:10:00,
2013-04-03 06:15:00,53.2,50.7,29.57,NW,309,9.0,12.0,91,0.00,,,0.30,VWS V14.01,2013-04-03 04:15:00,
2013-04-03 06:20:00,53.2,50.3,29.57,North,350,6.0,13.0,90,0.00,,,0.30,VWS V14.01,2013-04-03 04:20:00,
2013-04-03 06:25:00,53.2,50.3,29.57,NNW,330,12.0,16.0,90,0.00,,,0.30,VWS V14.01,2013-04-03 04:25:00,
2013-04-03 06:30:00,53.2,50.3,29.58,WNW,298,11.0,16.0,90,0.00,,,0.30,VWS V14.01,2013-04-03 04:30:00,
2013-04-03 06:35:00,53.3,50.5,29.58,NW,325,5.0,9.0,90,0.00,,,0.30,VWS V14.01,2013-04-03 04:35:00,
2013-04-03 06:40:00,53.3,50.5,29.58,NNW,329,10.0,10.0,90,0.00,,,0.30,VWS V14.01,2013-04-03 04:40:00,
2013-04-03 06:45:00,53.4,50.5,29.58,NNW,327,7.0,11.0,90,0.00,,,0.30,VWS V14.01,2013-04-03 04:45:00,
2013-04-03 06:50:00,53.4,50.5,29.58,NW,314,7.0,16.0,90,0.00,,,0.30,VWS V14.01,2013-04-03 04:50:00,
2013-04-03 06:55:00,53.6,50.7,29.58,NNW,340,11.0,13.0,90,0.00,,,0.30,VWS V14.01,2013-04-03 04:55:00,
2013-04-03 07:00:00,53.6,50.7,29.58,NNW,338,10.0,13.0,90,0.00,,,0.30,VWS V14.01,2013-04-03 05:00:00,
2013-04-03 07:05:00,53.5,50.3,29.58,NW,324,13.0,13.0,89,0.00,,,0.30,VWS V14.01,2013-04-03 05:05:00,
2013-04-03 07:10:00,53.5,50.3,29.58,NNW,346,13.0,13.0,89,0.00,,,0.30,VWS V14.01,2013-04-03 05:10:00,
2013-04-03 07:15:00,53.5,50.3,29.58,WNW,300,13.0,13.0,89,0.00,,,0.30,VWS V14.01,2013-04-03 05:15:00,
2013-04-03 07:20:00,53.5,50.0,29.59,WNW,302,10.0,14.0,88,0.00,,,0.30,VWS V14.01,2013-04-03 05:20:00,
2013-04-03 07:25:00,53.4,49.9,29.59,NNW,344,11.0,18.0,88,0.00,,,0.30,VWS V14.01,2013-04-03 05:25:00,
2013-04-03 07:30:00,53.4,49.9,29.59,NNW,335,7.0,18.0,88,0.00,,,0.30,VWS V14.01,2013-04-03 05:30:00,
2013-04-03 07:35:00,53.5,50.0,29.59,NW,323,7.0,18.0,88,0.00,,,0.30,VWS V14.01,2013-04-03 05:35:00,
2013-04-03 07:40:00,53.5,50.0,29.59,NW,323,6.0,18.0,88,0.00,,,0.30,VWS V14.01,2013-04-03 05:40:00,
2013-04-03 07:45:00,53.5,50.0,29.59,NNW,339,6.0,16.0,88,0.00,,,0.30,VWS V14.01,2013-04-03 05:45:00,
2013-04-03 07:50:00,53.6,50.1,29.59,WNW,290,11.0,17.0,88,0.00,,,0.30,VWS V14.01,2013-04-03 05:50:00,
2013-04-03 07:55:00,53.7,50.2,29.59,NNW,329,8.0,16.0,88,0.00,,,0.30,VWS V14.01,2013-04-03 05:55:00,
2013-04-03 08:00:00,53.7,50.2,29.59,North,5,7.0,21.0,88,0.00,,,0.30,VWS V14.01,2013-04-03 06:00:00,
2013-04-03 08:01:00,53.7,50.2,29.59,North,5,8.0,21.0,88,0.00,,,0.30,VWS V14.01,2013-04-03 06:01:00,
2013-04-03 08:06:00,53.8,50.0,29.59,NNW,331,9.0,26.0,87,0.00,,,0.30,VWS V14.01,2013-04-03 06:06:00,
2013-04-03 08:10:00,54.0,50.2,29.59,NNW,345,11.0,26.0,87,0.00,,,0.30,VWS V14.01,2013-04-03 06:10:00,
2013-04-03 08:11:00,54.0,50.2,29.59,NNW,342,14.0,14.0,87,0.00,,,0.30,VWS V14.01,2013-04-03 06:11:00,
2013-04-03 08:16:00,54.2,50.1,29.60,NNW,345,11.0,18.0,86,0.00,,,0.30,VWS V14.01,2013-04-03 06:16:00,
2013-04-03 08:20:00,54.4,50.3,29.60,NNW,340,10.0,19.0,86,0.00,,,0.30,VWS V14.01,2013-04-03 06:20:00,
2013-04-03 08:21:00,54.4,50.3,29.60,NNW,343,6.0,10.0,86,0.00,,,0.30,VWS V14.01,2013-04-03 06:21:00,
2013-04-03 08:26:00,54.4,50.3,29.60,NW,321,13.0,21.0,86,0.00,,,0.30,VWS V14.01,2013-04-03 06:26:00,
2013-04-03 08:30:00,54.5,50.4,29.60,NNW,329,8.0,21.0,86,0.00,,,0.30,VWS V14.01,2013-04-03 06:30:00,
2013-04-03 08:31:00,54.5,50.4,29.60,NNW,338,7.0,8.0,86,0.00,,,0.30,VWS V14.01,2013-04-03 06:31:00,
2013-04-03 08:36:00,54.4,50.3,29.60,NW,312,5.0,14.0,86,0.00,,,0.30,VWS V14.01,2013-04-03 06:36:00,
2013-04-03 08:40:00,54.4,50.3,29.60,NW,323,6.0,14.0,86,0.00,,,0.30,VWS V14.01,2013-04-03 06:40:00,
2013-04-03 08:41:00,54.4,50.3,29.61,NW,323,4.0,6.0,86,0.00,,,0.30,VWS V14.01,2013-04-03 06:41:00,
2013-04-03 08:46:00,54.3,50.2,29.60,North,355,5.0,15.0,86,0.00,,,0.30,VWS V14.01,2013-04-03 06:46:00,
2013-04-03 08:50:00,54.4,51.2,29.60,NW,309,7.0,15.0,89,0.00,,,0.30,VWS V14.01,2013-04-03 06:50:00,
2013-04-03 08:51:00,54.4,51.2,29.61,NW,311,6.0,7.0,89,0.00,,,0.30,VWS V14.01,2013-04-03 06:51:00,
2013-04-03 08:56:00,54.4,50.3,29.60,NNW,344,10.0,15.0,86,0.00,,,0.30,VWS V14.01,2013-04-03 06:56:00,
2013-04-03 09:00:00,54.7,50.9,29.61,NW,319,8.0,15.0,87,0.00,,,0.30,VWS V14.01,2013-04-03 07:00:00,
2013-04-03 09:01:00,54.7,50.9,29.61,NW,319,8.0,15.0,87,0.00,,,0.30,VWS V14.01,2013-04-03 07:01:00,
2013-04-03 09:06:00,55.0,50.9,29.61,NW,311,12.0,13.0,86,0.00,,,0.30,VWS V14.01,2013-04-03 07:06:00,
2013-04-03 09:10:00,54.7,50.6,29.61,NNW,330,9.0,16.0,86,0.00,,,0.30,VWS V14.01,2013-04-03 07:10:00,
2013-04-03 09:11:00,54.7,50.6,29.61,NW,304,11.0,11.0,86,0.00,,,0.30,VWS V14.01,2013-04-03 07:11:00,
2013-04-03 09:16:00,54.6,50.5,29.61,NNW,339,11.0,17.0,86,0.00,,,0.30,VWS V14.01,2013-04-03 07:16:00,
2013-04-03 09:20:00,54.6,50.8,29.61,NW,309,7.0,17.0,87,0.00,,,0.30,VWS V14.01,2013-04-03 07:20:00,
2013-04-03 09:21:00,54.5,50.7,29.61,NNW,337,5.0,11.0,87,0.00,,,0.30,VWS V14.01,2013-04-03 07:21:00,
2013-04-03 09:26:00,54.5,50.7,29.61,NW,314,7.0,15.0,87,0.00,,,0.30,VWS V14.01,2013-04-03 07:26:00,
2013-04-03 09:30:00,54.7,50.9,29.62,NW,313,7.0,15.0,87,0.00,,,0.30,VWS V14.01,2013-04-03 07:30:00,
2013-04-03 09:32:00,54.6,50.8,29.62,NW,314,8.0,13.0,87,0.00,,,0.30,VWS V14.01,2013-04-03 07:32:00,
2013-04-03 09:37:00,54.6,50.8,29.62,North,349,5.0,13.0,87,0.00,,,0.30,VWS V14.01,2013-04-03 07:37:00,
2013-04-03 09:40:00,54.6,50.8,29.62,WNW,288,11.0,16.0,87,0.00,,,0.30,VWS V14.01,2013-04-03 07:40:00,
2013-04-03 09:42:00,54.6,50.8,29.62,NW,309,9.0,11.0,87,0.00,,,0.30,VWS V14.01,2013-04-03 07:42:00,
2013-04-03 09:47:00,54.9,51.1,29.62,WNW,294,10.0,11.0,87,0.00,,,0.30,VWS V14.01,2013-04-03 07:47:00,
2013-04-03 09:50:00,55.0,50.9,29.62,WNW,301,13.0,15.0,86,0.00,,,0.30,VWS V14.01,2013-04-03 07:50:00,
2013-04-03 09:52:00,55.2,51.1,29.62,WNW,300,13.0,15.0,86,0.00,,,0.30,VWS V14.01,2013-04-03 07:52:00,
2013-04-03 09:57:00,55.3,50.9,29.62,NW,305,10.0,15.0,85,0.00,,,0.30,VWS V14.01,2013-04-03 07:57:00,
2013-04-03 10:00:00,55.5,51.1,29.62,NW,309,12.0,16.0,85,0.00,,,0.30,VWS V14.01,2013-04-03 08:00:00,
2013-04-03 10:02:00,55.6,51.2,29.62,NW,316,6.0,15.0,85,0.00,,,0.30,VWS V14.01,2013-04-03 08:02:00,
2013-04-03 10:07:00,56.0,51.2,29.62,WNW,296,12.0,15.0,84,0.00,,,0.30,VWS V14.01,2013-04-03 08:07:00,
2013-04-03 10:10:00,56.4,51.6,29.62,NW,314,12.0,15.0,84,0.00,,,0.30,VWS V14.01,2013-04-03 08:10:00,
2013-04-03 10:12:00,56.3,51.2,29.62,NW,317,9.0,14.0,83,0.00,,,0.30,VWS V14.01,2013-04-03 08:12:00,
2013-04-03 10:17:00,56.1,51.0,29.63,WNW,284,8.0,15.0,83,0.00,,,0.30,VWS V14.01,2013-04-03 08:17:00,
2013-04-03 10:20:00,56.4,51.6,29.63,WNW,300,12.0,15.0,84,0.00,,,0.30,VWS V14.01,2013-04-03 08:20:00,
2013-04-03 10:22:00,56.3,51.5,29.62,NW,311,7.0,14.0,84,0.00,,,0.30,VWS V14.01,2013-04-03 08:22:00,
2013-04-03 10:27:00,55.9,51.1,29.63,WNW,293,14.0,16.0,84,0.00,,,0.30,VWS V14.01,2013-04-03 08:27:00,
2013-04-03 10:30:00,56.1,51.7,29.63,NW,325,5.0,16.0,85,0.00,,,0.30,VWS V14.01,2013-04-03 08:30:00,
2013-04-03 10:32:00,56.1,51.7,29.63,NW,306,7.0,10.0,85,0.00,,,0.30,VWS V14.01,2013-04-03 08:32:00,
2013-04-03 10:37:00,56.2,51.8,29.64,WNW,289,9.0,14.0,85,0.00,,,0.30,VWS V14.01,2013-04-03 08:37:00,
2013-04-03 10:40:00,56.1,51.7,29.63,WNW,301,18.0,18.0,85,0.00,,,0.30,VWS V14.01,2013-04-03 08:40:00,
2013-04-03 10:42:00,56.0,51.2,29.63,WNW,291,10.0,18.0,84,0.00,,,0.30,VWS V14.01,2013-04-03 08:42:00,
2013-04-03 10:47:00,55.8,51.4,29.63,WNW,286,7.0,18.0,85,0.00,,,0.30,VWS V14.01,2013-04-03 08:47:00,
2013-04-03 10:50:00,55.6,51.2,29.63,NNW,335,6.0,18.0,85,0.00,,,0.30,VWS V14.01,2013-04-03 08:50:00,
2013-04-03 10:52:00,55.4,51.0,29.63,NW,317,6.0,11.0,85,0.00,,,0.30,VWS V14.01,2013-04-03 08:52:00,
2013-04-03 10:57:00,55.4,51.3,29.63,WNW,298,10.0,12.0,86,0.00,,,0.30,VWS V14.01,2013-04-03 08:57:00,
2013-04-03 11:00:00,55.3,50.9,29.63,WNW,298,9.0,16.0,85,0.00,,,0.30,VWS V14.01,2013-04-03 09:00:00,
2013-04-03 11:02:00,55.5,51.4,29.63,West,278,15.0,16.0,86,0.00,,,0.30,VWS V14.01,2013-04-03 09:02:00,
2013-04-03 11:07:00,55.5,51.4,29.64,West,280,9.0,16.0,86,0.00,,,0.30,VWS V14.01,2013-04-03 09:07:00,
2013-04-03 11:10:00,55.5,51.4,29.64,NNW,344,6.0,16.0,86,0.00,,,0.30,VWS V14.01,2013-04-03 09:10:00,
2013-04-03 11:12:00,55.6,51.5,29.64,NNW,327,8.0,9.0,86,0.00,,,0.30,VWS V14.01,2013-04-03 09:12:00,
2013-04-03 11:17:00,55.6,51.2,29.64,WSW,258,5.0,17.0,85,0.00,,,0.30,VWS V14.01,2013-04-03 09:17:00,
2013-04-03 11:20:00,55.5,51.1,29.64,West,275,19.0,20.0,85,0.00,,,0.30,VWS V14.01,2013-04-03 09:20:00,
2013-04-03 11:22:00,55.5,51.1,29.64,West,275,12.0,19.0,85,0.00,,,0.30,VWS V14.01,2013-04-03 09:22:00,
2013-04-03 11:27:00,55.7,51.3,29.65,WNW,292,17.0,19.0,85,0.00,,,0.30,VWS V14.01,2013-04-03 09:27:00,
2013-04-03 11:30:00,56.4,51.3,29.64,West,280,16.0,19.0,83,0.00,,,0.30,VWS V14.01,2013-04-03 09:30:00,
2013-04-03 11:33:00,56.2,50.8,29.65,WNW,288,13.0,21.0,82,0.00,,,0.30,VWS V14.01,2013-04-03 09:33:00,
2013-04-03 11:38:00,56.5,50.4,29.65,West,279,19.0,21.0,80,0.00,,,0.30,VWS V14.01,2013-04-03 09:38:00,
2013-04-03 11:40:00,56.9,51.1,29.65,West,279,9.0,21.0,81,0.00,,,0.30,VWS V14.01,2013-04-03 09:40:00,
2013-04-03 11:43:00,57.0,50.6,29.65,West,276,15.0,18.0,79,0.00,,,0.30,VWS V14.01,2013-04-03 09:43:00,
2013-04-03 11:47:00,58.0,51.9,29.64,NW,315,6.0,18.0,80,0.00,,,0.30,VWS V14.01,2013-04-03 09:47:00,
2013-04-03 11:50:00,57.7,50.9,29.65,West,273,14.0,21.0,78,0.01,,,0.31,VWS V14.01,2013-04-03 09:50:00,
2013-04-03 11:52:00,57.7,51.2,29.65,West,271,14.0,17.0,79,0.01,,,0.31,VWS V14.01,2013-04-03 09:52:00,
2013-04-03 11:58:00,57.4,50.3,29.65,WNW,297,17.0,17.0,77,0.01,,,0.31,VWS V14.01,2013-04-03 09:58:00,
2013-04-03 12:00:00,57.6,50.8,29.65,West,281,4.0,17.0,78,0.01,,,0.31,VWS V14.01,2013-04-03 10:00:00,
2013-04-03 12:03:00,57.5,50.7,29.66,WNW,297,17.0,20.0,78,0.01,,,0.31,VWS V14.01,2013-04-03 10:03:00,
2013-04-03 12:08:00,57.0,50.2,29.65,WNW,287,16.0,20.0,78,0.01,,,0.31,VWS V14.01,2013-04-03 10:08:00,
2013-04-03 12:10:00,56.9,50.8,29.66,WNW,285,14.0,20.0,80,0.01,,,0.31,VWS V14.01,2013-04-03 10:10:00,
2013-04-03 12:13:00,56.5,50.4,29.66,WNW,284,19.0,21.0,80,0.01,,,0.31,VWS V14.01,2013-04-03 10:13:00,
2013-04-03 12:18:00,56.8,50.4,29.66,WNW,297,15.0,22.0,79,0.01,,,0.31,VWS V14.01,2013-04-03 10:18:00,
2013-04-03 12:20:00,57.2,51.1,29.66,West,260,4.0,22.0,80,0.01,,,0.31,VWS V14.01,2013-04-03 10:20:00,
2013-04-03 12:23:00,57.5,51.7,29.66,West,280,19.0,19.0,81,0.01,,,0.31,VWS V14.01,2013-04-03 10:23:00,
2013-04-03 12:28:00,56.5,50.1,29.66,West,275,17.0,21.0,79,0.01,,,0.31,VWS V14.01,2013-04-03 10:28:00,
2013-04-03 12:30:00,57.1,51.3,29.66,WNW,297,9.0,21.0,81,0.01,,,0.31,VWS V14.01,2013-04-03 10:30:00,
2013-04-03 12:33:00,57.6,51.5,29.66,West,278,17.0,17.0,80,0.01,,,0.31,VWS V14.01,2013-04-03 10:33:00,
2013-04-03 12:38:00,57.2,50.8,29.66,WNW,285,17.0,21.0,79,0.01,,,0.31,VWS V14.01,2013-04-03 10:38:00,
2013-04-03 12:40:00,57.5,50.4,29.66,West,263,19.0,23.0,77,0.01,,,0.31,VWS V14.01,2013-04-03 10:40:00,
2013-04-03 12:43:00,57.8,50.7,29.66,NW,309,14.0,19.0,77,0.01,,,0.31,VWS V14.01,2013-04-03 10:43:00,
2013-04-03 12:48:00,57.9,50.7,29.66,West,277,18.0,19.0,77,0.01,,,0.31,VWS V14.01,2013-04-03 10:48:00,
2013-04-03 12:50:00,57.8,50.7,29.66,NW,321,8.0,19.0,77,0.01,,,0.31,VWS V14.01,2013-04-03 10:50:00,
2013-04-03 12:53:00,57.6,50.5,29.66,NNW,329,13.0,17.0,77,0.00,,,0.31,VWS V14.01,2013-04-03 10:53:00,
2013-04-03 12:58:00,57.2,50.8,29.66,West,280,14.0,19.0,79,0.00,,,0.31,VWS V14.01,2013-04-03 10:58:00,
2013-04-03 13:00:00,57.1,51.0,29.66,NW,319,9.0,19.0,80,0.00,,,0.31,VWS V14.01,2013-04-03 11:00:00,
2013-04-03 13:03:00,57.7,51.6,29.66,WNW,288,9.0,12.0,80,0.00,,,0.31,VWS V14.01,2013-04-03 11:03:00,
2013-04-03 13:08:00,57.0,50.6,29.66,NW,307,18.0,22.0,79,0.00,,,0.31,VWS V14.01,2013-04-03 11:08:00,
2013-04-03 13:10:00,57.3,50.8,29.66,West,275,8.0,22.0,79,0.00,,,0.31,VWS V14.01,2013-04-03 11:10:00,
2013-04-03 13:13:00,57.4,51.0,29.66,WNW,288,10.0,20.0,79,0.00,,,0.31,VWS V14.01,2013-04-03 11:13:00,
2013-04-03 13:18:00,58.0,51.9,29.66,West,274,11.0,20.0,80,0.00,,,0.31,VWS V14.01,2013-04-03 11:18:00,
2013-04-03 13:20:00,58.3,51.8,29.66,WNW,287,8.0,20.0,79,0.00,,,0.31,VWS V14.01,2013-04-03 11:20:00,
2013-04-03 13:23:00,58.7,52.2,29.66,West,278,15.0,15.0,79,0.00,,,0.31,VWS V14.01,2013-04-03 11:23:00,
2013-04-03 13:28:00,57.8,51.3,29.66,WSW,248,10.0,20.0,79,0.00,,,0.31,VWS V14.01,2013-04-03 11:28:00,
2013-04-03 13:30:00,58.5,52.0,29.66,West,267,1.0,20.0,79,0.00,,,0.31,VWS V14.01,2013-04-03 11:30:00,
2013-04-03 13:33:00,58.0,50.8,29.66,West,277,13.0,20.0,77,0.00,,,0.31,VWS V14.01,2013-04-03 11:33:00,
2013-04-03 13:38:00,57.9,51.1,29.66,West,276,13.0,20.0,78,0.00,,,0.31,VWS V14.01,2013-04-03 11:38:00,
2013-04-03 13:40:00,58.7,51.9,29.66,WNW,288,13.0,20.0,78,0.00,,,0.31,VWS V14.01,2013-04-03 11:40:00,
2013-04-03 13:43:00,58.5,51.3,29.66,WNW,296,14.0,20.0,77,0.00,,,0.31,VWS V14.01,2013-04-03 11:43:00,
2013-04-03 13:48:00,58.3,51.5,29.66,West,263,15.0,24.0,78,0.00,,,0.31,VWS V14.01,2013-04-03 11:48:00,
2013-04-03 13:50:00,58.7,51.5,29.66,WSW,256,16.0,24.0,77,0.00,,,0.31,VWS V14.01,2013-04-03 11:50:00,
2013-04-03 13:53:00,58.2,51.0,29.66,West,262,9.0,21.0,77,0.00,,,0.31,VWS V14.01,2013-04-03 11:53:00,
2013-04-03 13:59:00,58.3,51.5,29.66,WSW,244,14.0,23.0,78,0.00,,,0.31,VWS V14.01,2013-04-03 11:59:00,
2013-04-03 14:00:00,58.6,51.4,29.66,WSW,248,14.0,23.0,77,0.00,,,0.31,VWS V14.01,2013-04-03 12:00:00,
2013-04-03 14:04:00,58.8,51.6,29.66,WNW,289,11.0,20.0,77,0.00,,,0.31,VWS V14.01,2013-04-03 12:04:00,
2013-04-03 14:09:00,59.3,51.4,29.66,West,260,11.0,20.0,75,0.00,,,0.31,VWS V14.01,2013-04-03 12:09:00,
2013-04-03 14:10:00,59.2,50.9,29.66,WNW,294,18.0,23.0,74,0.00,,,0.31,VWS V14.01,2013-04-03 12:10:00,
2013-04-03 14:14:00,59.3,51.4,29.66,WNW,284,15.0,21.0,75,0.00,,,0.31,VWS V14.01,2013-04-03 12:14:00,
2013-04-03 14:19:00,59.1,50.5,29.66,WNW,297,9.0,22.0,73,0.00,,,0.31,VWS V14.01,2013-04-03 12:19:00,
2013-04-03 14:20:00,59.1,50.8,29.66,WNW,291,16.0,22.0,74,0.00,,,0.31,VWS V14.01,2013-04-03 12:20:00,
2013-04-03 14:24:00,59.2,50.9,29.66,WNW,297,6.0,20.0,74,0.00,,,0.31,VWS V14.01,2013-04-03 12:24:00,
2013-04-03 14:29:00,58.4,49.8,29.66,West,270,18.0,24.0,73,0.00,,,0.31,VWS V14.01,2013-04-03 12:29:00,
2013-04-03 14:30:00,58.5,49.9,29.66,SSW,202,11.0,24.0,73,0.00,,,0.31,VWS V14.01,2013-04-03 12:30:00,
2013-04-03 14:34:00,58.3,49.7,29.66,WNW,292,17.0,25.0,73,0.00,,,0.31,VWS V14.01,2013-04-03 12:34:00,
2013-04-03 14:39:00,59.6,51.3,29.66,NW,316,7.0,25.0,74,0.00,,,0.31,VWS V14.01,2013-04-03 12:39:00,
2013-04-03 14:40:00,59.7,51.0,29.66,WSW,252,4.0,25.0,73,0.00,,,0.31,VWS V14.01,2013-04-03 12:40:00,
2013-04-03 14:44:00,58.7,49.7,29.67,NW,309,14.0,23.0,72,0.00,,,0.31,VWS V14.01,2013-04-03 12:44:00,
2013-04-03 14:49:00,59.0,50.4,29.67,West,269,12.0,23.0,73,0.00,,,0.31,VWS V14.01,2013-04-03 12:49:00,
2013-04-03 14:50:00,58.7,50.1,29.67,WNW,285,19.0,23.0,73,0.00,,,0.31,VWS V14.01,2013-04-03 12:50:00,
2013-04-03 14:54:00,58.8,50.5,29.67,WNW,282,18.0,20.0,74,0.00,,,0.31,VWS V14.01,2013-04-03 12:54:00,
2013-04-03 14:59:00,58.6,50.7,29.67,West,265,14.0,22.0,75,0.00,,,0.31,VWS V14.01,2013-04-03 12:59:00,
2013-04-03 15:00:00,58.3,50.4,29.67,West,271,12.0,22.0,75,0.00,,,0.31,VWS V14.01,2013-04-03 13:00:00,
2013-04-03 15:04:00,59.0,51.5,29.67,West,273,12.0,18.0,76,0.00,,,0.31,VWS V14.01,2013-04-03 13:04:00,
2013-04-03 15:09:00,58.5,51.0,29.67,West,260,15.0,24.0,76,0.00,,,0.31,VWS V14.01,2013-04-03 13:09:00,
2013-04-03 15:10:00,58.4,50.9,29.67,NW,305,17.0,24.0,76,0.00,,,0.31,VWS V14.01,2013-04-03 13:10:00,
2013-04-03 15:14:00,58.3,50.4,29.67,WSW,246,7.0,18.0,75,0.00,,,0.31,VWS V14.01,2013-04-03 13:14:00,
2013-04-03 15:19:00,58.4,50.2,29.67,WNW,284,8.0,24.0,74,0.00,,,0.31,VWS V14.01,2013-04-03 13:19:00,
2013-04-03 15:20:00,58.3,50.1,29.67,WNW,294,8.0,24.0,74,0.00,,,0.31,VWS V14.01,2013-04-03 13:20:00,
2013-04-03 15:24:00,58.2,50.3,29.68,NW,305,12.0,19.0,75,0.00,,,0.31,VWS V14.01,2013-04-03 13:24:00,
2013-04-03 15:29:00,59.2,50.9,29.68,West,265,17.0,19.0,74,0.00,,,0.31,VWS V14.01,2013-04-03 13:29:00,
2013-04-03 15:30:00,58.9,51.0,29.67,WNW,296,13.0,19.0,75,0.00,,,0.31,VWS V14.01,2013-04-03 13:30:00,
2013-04-03 15:34:00,59.0,51.8,29.67,West,269,8.0,17.0,77,0.00,,,0.31,VWS V14.01,2013-04-03 13:34:00,
2013-04-03 15:39:00,59.1,51.5,29.68,WNW,285,9.0,18.0,76,0.00,,,0.31,VWS V14.01,2013-04-03 13:39:00,
2013-04-03 15:40:00,59.0,51.8,29.67,West,271,15.0,18.0,77,0.00,,,0.31,VWS V14.01,2013-04-03 13:40:00,
2013-04-03 15:44:00,58.7,51.9,29.67,West,277,15.0,17.0,78,0.00,,,0.31,VWS V14.01,2013-04-03 13:44:00,
2013-04-03 15:49:00,57.9,51.4,29.68,West,279,12.0,21.0,79,0.00,,,0.31,VWS V14.01,2013-04-03 13:49:00,
2013-04-03 15:50:00,58.3,52.2,29.68,WSW,256,14.0,21.0,80,0.00,,,0.31,VWS V14.01,2013-04-03 13:50:00,
2013-04-03 15:54:00,58.9,52.8,29.67,WSW,252,10.0,17.0,80,0.00,,,0.31,VWS V14.01,2013-04-03 13:54:00,
2013-04-03 15:59:00,58.6,52.1,29.68,West,277,6.0,17.0,79,0.00,,,0.31,VWS V14.01,2013-04-03 13:59:00,
2013-04-03 16:00:00,58.5,52.0,29.67,WNW,282,11.0,17.0,79,0.00,,,0.31,VWS V14.01,2013-04-03 14:00:00,
2013-04-03 16:04:00,58.5,52.4,29.67,West,279,12.0,18.0,80,0.00,,,0.31,VWS V14.01,2013-04-03 14:04:00,
2013-04-03 16:09:00,58.7,52.2,29.68,West,270,12.0,18.0,79,0.00,,,0.31,VWS V14.01,2013-04-03 14:09:00,
2013-04-03 16:10:00,58.7,52.6,29.68,WNW,293,5.0,18.0,80,0.00,,,0.31,VWS V14.01,2013-04-03 14:10:00,
2013-04-03 16:14:00,58.1,52.0,29.68,WNW,295,15.0,16.0,80,0.00,,,0.31,VWS V14.01,2013-04-03 14:14:00,
2013-04-03 16:19:00,57.9,52.1,29.68,WNW,299,9.0,16.0,81,0.00,,,0.31,VWS V14.01,2013-04-03 14:19:00,
2013-04-03 16:20:00,58.3,52.8,29.68,WNW,303,7.0,16.0,82,0.00,,,0.31,VWS V14.01,2013-04-03 14:20:00,
2013-04-03 16:24:00,58.6,52.5,29.68,WSW,258,12.0,15.0,80,0.00,,,0.31,VWS V14.01,2013-04-03 14:24:00,
2013-04-03 16:29:00,58.6,52.1,29.68,West,268,12.0,20.0,79,0.00,,,0.31,VWS V14.01,2013-04-03 14:29:00,
2013-04-03 16:30:00,58.7,52.6,29.68,West,259,7.0,20.0,80,0.00,,,0.31,VWS V14.01,2013-04-03 14:30:00,
2013-04-03 16:34:00,58.8,52.7,29.68,West,263,11.0,16.0,80,0.00,,,0.31,VWS V14.01,2013-04-03 14:34:00,
2013-04-03 16:39:00,58.5,52.0,29.68,WSW,257,7.0,16.0,79,0.00,,,0.31,VWS V14.01,2013-04-03 14:39:00,
2013-04-03 16:40:00,58.5,52.4,29.68,West,276,14.0,16.0,80,0.00,,,0.31,VWS V14.01,2013-04-03 14:40:00,
2013-04-03 16:44:00,58.3,52.2,29.68,WSW,243,7.0,16.0,80,0.00,,,0.31,VWS V14.01,2013-04-03 14:44:00,
2013-04-03 16:49:00,58.3,52.2,29.68,WSW,238,11.0,17.0,80,0.00,,,0.31,VWS V14.01,2013-04-03 14:49:00,
2013-04-03 16:50:00,58.0,51.9,29.68,WNW,292,7.0,19.0,80,0.00,,,0.31,VWS V14.01,2013-04-03 14:50:00,
2013-04-03 16:54:00,58.1,52.3,29.69,West,273,9.0,14.0,81,0.00,,,0.31,VWS V14.01,2013-04-03 14:54:00,
2013-04-03 16:59:00,58.0,51.9,29.69,West,270,10.0,20.0,80,0.00,,,0.31,VWS V14.01,2013-04-03 14:59:00,
2013-04-03 17:00:00,58.2,52.1,29.68,West,278,17.0,20.0,80,0.00,,,0.31,VWS V14.01,2013-04-03 15:00:00,
2013-04-03 17:04:00,58.2,52.4,29.68,WSW,249,11.0,20.0,81,0.00,,,0.31,VWS V14.01,2013-04-03 15:04:00,
2013-04-03 17:09:00,57.9,51.8,29.69,West,273,10.0,21.0,80,0.00,,,0.31,VWS V14.01,2013-04-03 15:09:00,
2013-04-03 17:10:00,58.2,52.4,29.69,West,273,9.0,21.0,81,0.00,,,0.31,VWS V14.01,2013-04-03 15:10:00,
2013-04-03 17:14:00,58.2,52.1,29.69,WNW,300,9.0,16.0,80,0.00,,,0.31,VWS V14.01,2013-04-03 15:14:00,
2013-04-03 17:19:00,58.0,51.9,29.69,WNW,301,17.0,18.0,80,0.00,,,0.31,VWS V14.01,2013-04-03 15:19:00,
2013-04-03 17:20:00,58.0,51.9,29.69,WSW,238,7.0,18.0,80,0.00,,,0.31,VWS V14.01,2013-04-03 15:20:00,
2013-04-03 17:24:00,58.3,52.2,29.69,WNW,290,16.0,18.0,80,0.00,,,0.31,VWS V14.01,2013-04-03 15:24:00,
2013-04-03 17:29:00,58.1,52.3,29.69,WNW,302,15.0,20.0,81,0.00,,,0.31,VWS V14.01,2013-04-03 15:29:00,
2013-04-03 17:30:00,58.1,52.0,29.69,West,278,8.0,20.0,80,0.00,,,0.31,VWS V14.01,2013-04-03 15:30:00,
2013-04-03 17:34:00,58.1,52.3,29.69,West,270,18.0,18.0,81,0.00,,,0.31,VWS V14.01,2013-04-03 15:34:00,
2013-04-03 17:39:00,57.8,52.3,29.68,WNW,285,2.0,19.0,82,0.00,,,0.31,VWS V14.01,2013-04-03 15:39:00,
2013-04-03 17:40:00,58.0,52.9,29.68,West,267,13.0,19.0,83,0.00,,,0.31,VWS V14.01,2013-04-03 15:40:00,
2013-04-03 17:44:00,58.0,52.5,29.68,WSW,254,16.0,22.0,82,0.00,,,0.31,VWS V14.01,2013-04-03 15:44:00,
2013-04-03 17:49:00,58.1,52.6,29.68,WSW,256,8.0,22.0,82,0.00,,,0.31,VWS V14.01,2013-04-03 15:49:00,
2013-04-03 17:50:00,58.2,52.7,29.69,West,266,15.0,22.0,82,0.00,,,0.31,VWS V14.01,2013-04-03 15:50:00,
2013-04-03 17:54:00,58.3,52.5,29.69,WNW,296,10.0,16.0,81,0.00,,,0.31,VWS V14.01,2013-04-03 15:54:00,
2013-04-03 17:59:00,57.9,52.1,29.69,WSW,255,7.0,18.0,81,0.00,,,0.31,VWS V14.01,2013-04-03 15:59:00,
2013-04-03 18:00:00,58.0,52.2,29.69,WNW,298,5.0,18.0,81,0.00,,,0.31,VWS V14.01,2013-04-03 16:00:00,
2013-04-03 18:04:00,58.0,52.2,29.69,West,259,5.0,19.0,81,0.00,,,0.31,VWS V14.01,2013-04-03 16:04:00,
2013-04-03 18:10:00,58.0,51.9,29.69,WNW,289,13.0,19.0,80,0.00,,,0.31,VWS V14.01,2013-04-03 16:10:00,
2013-04-03 18:15:00,57.7,51.6,29.70,WNW,303,6.0,17.0,80,0.00,,,0.31,VWS V14.01,2013-04-03 16:15:00,
2013-04-03 18:20:00,57.6,51.8,29.70,WNW,303,4.0,17.0,81,0.00,,,0.31,VWS V14.01,2013-04-03 16:20:00,
2013-04-03 18:25:00,57.8,52.0,29.70,West,275,18.0,18.0,81,0.00,,,0.31,VWS V14.01,2013-04-03 16:25:00,
2013-04-03 18:30:00,57.4,51.6,29.70,West,264,11.0,18.0,81,0.00,,,0.31,VWS V14.01,2013-04-03 16:30:00,
2013-04-03 18:35:00,57.2,51.8,29.70,West,275,15.0,16.0,82,0.00,,,0.31,VWS V14.01,2013-04-03 16:35:00,
2013-04-03 18:40:00,57.2,51.8,29.70,WNW,287,11.0,18.0,82,0.00,,,0.31,VWS V14.01,2013-04-03 16:40:00,
2013-04-03 18:45:00,57.3,51.9,29.70,West,267,5.0,13.0,82,0.00,,,0.31,VWS V14.01,2013-04-03 16:45:00,
2013-04-03 18:50:00,57.0,51.6,29.70,WNW,286,6.0,16.0,82,0.00,,,0.31,VWS V14.01,2013-04-03 16:50:00,
2013-04-03 18:55:00,57.2,52.1,29.70,West,263,8.0,10.0,83,0.00,,,0.31,VWS V14.01,2013-04-03 16:55:00,
2013-04-03 19:00:00,57.1,52.0,29.70,West,263,15.0,15.0,83,0.00,,,0.31,VWS V14.01,2013-04-03 17:00:00,
2013-04-03 19:05:00,56.8,51.7,29.70,WNW,286,11.0,16.0,83,0.00,,,0.31,VWS V14.01,2013-04-03 17:05:00,
2013-04-03 19:10:00,56.8,52.0,29.71,WNW,296,14.0,16.0,84,0.00,,,0.31,VWS V14.01,2013-04-03 17:10:00,
2013-04-03 19:15:00,56.5,51.7,29.71,SW,232,6.0,14.0,84,0.00,,,0.31,VWS V14.01,2013-04-03 17:15:00,
2013-04-03 19:20:00,56.5,51.7,29.71,WSW,256,3.0,14.0,84,0.00,,,0.31,VWS V14.01,2013-04-03 17:20:00,
2013-04-03 19:25:00,56.3,51.5,29.71,West,263,9.0,12.0,84,0.00,,,0.31,VWS V14.01,2013-04-03 17:25:00,
2013-04-03 19:30:00,56.2,51.4,29.71,WNW,290,0.0,13.0,84,0.00,,,0.31,VWS V14.01,2013-04-03 17:30:00,
2013-04-03 19:35:00,56.0,51.2,29.71,NW,317,9.0,14.0,84,0.00,,,0.31,VWS V14.01,2013-04-03 17:35:00,
2013-04-03 19:40:00,56.0,51.2,29.72,NW,311,8.0,14.0,84,0.00,,,0.31,VWS V14.01,2013-04-03 17:40:00,
2013-04-03 19:45:00,56.0,51.6,29.72,WSW,244,7.0,15.0,85,0.00,,,0.31,VWS V14.01,2013-04-03 17:45:00,
2013-04-03 19:50:00,56.0,51.6,29.72,WNW,296,6.0,15.0,85,0.00,,,0.31,VWS V14.01,2013-04-03 17:50:00,
2013-04-03 19:55:00,56.0,51.6,29.72,WNW,284,11.0,14.0,85,0.00,,,0.31,VWS V14.01,2013-04-03 17:55:00,
2013-04-03 20:00:00,56.1,51.7,29.73,West,266,4.0,14.0,85,0.00,,,0.31,VWS V14.01,2013-04-03 18:00:00,
2013-04-03 20:05:00,55.9,51.8,29.73,WSW,256,6.0,12.0,86,0.00,,,0.31,VWS V14.01,2013-04-03 18:05:00,
2013-04-03 20:10:00,56.0,51.9,29.73,West,271,3.0,15.0,86,0.00,,,0.31,VWS V14.01,2013-04-03 18:10:00,
2013-04-03 20:15:00,56.0,51.9,29.73,WNW,283,7.0,13.0,86,0.00,,,0.31,VWS V14.01,2013-04-03 18:15:00,
2013-04-03 20:20:00,56.0,51.9,29.74,West,265,1.0,13.0,86,0.00,,,0.31,VWS V14.01,2013-04-03 18:20:00,
2013-04-03 20:25:00,56.0,51.9,29.73,West,278,4.0,10.0,86,0.00,,,0.31,VWS V14.01,2013-04-03 18:25:00,
2013-04-03 20:30:00,55.8,51.7,29.74,WNW,286,7.0,10.0,86,0.00,,,0.31,VWS V14.01,2013-04-03 18:30:00,
2013-04-03 20:35:00,55.8,51.7,29.74,WNW,285,9.0,12.0,86,0.00,,,0.31,VWS V14.01,2013-04-03 18:35:00,
2013-04-03 20:40:00,55.7,51.6,29.74,WNW,294,7.0,12.0,86,0.00,,,0.31,VWS V14.01,2013-04-03 18:40:00,
2013-04-03 20:46:00,55.8,51.7,29.74,WNW,302,4.0,10.0,86,0.00,,,0.31,VWS V14.01,2013-04-03 18:46:00,
2013-04-03 20:50:00,55.7,51.6,29.74,West,279,2.0,10.0,86,0.00,,,0.31,VWS V14.01,2013-04-03 18:50:00,
2013-04-03 20:55:00,55.6,51.8,29.75,WNW,286,7.0,12.0,87,0.00,,,0.31,VWS V14.01,2013-04-03 18:55:00,
2013-04-03 21:00:00,55.7,51.9,29.75,WNW,294,0.0,12.0,87,0.00,,,0.31,VWS V14.01,2013-04-03 19:00:00,
2013-04-03 21:05:00,55.7,51.9,29.75,West,265,4.0,6.0,87,0.00,,,0.31,VWS V14.01,2013-04-03 19:05:00,
2013-04-03 21:10:00,55.8,52.0,29.75,WNW,286,5.0,10.0,87,0.00,,,0.31,VWS V14.01,2013-04-03 19:10:00,
2013-04-03 21:11:00,55.8,52.0,29.75,WNW,286,5.0,10.0,87,0.00,,,0.31,VWS V14.01,2013-04-03 19:11:00,
2013-04-03 21:16:00,55.8,52.0,29.76,WSW,244,1.0,13.0,87,0.00,,,0.31,VWS V14.01,2013-04-03 19:16:00,
2013-04-03 21:20:00,55.9,52.1,29.76,WNW,290,5.0,13.0,87,0.00,,,0.31,VWS V14.01,2013-04-03 19:20:00,
2013-04-03 21:21:00,55.9,52.1,29.76,WNW,292,4.0,6.0,87,0.00,,,0.31,VWS V14.01,2013-04-03 19:21:00,
2013-04-03 21:26:00,56.0,52.2,29.76,WNW,286,5.0,8.0,87,0.00,,,0.31,VWS V14.01,2013-04-03 19:26:00,
2013-04-03 21:30:00,56.0,52.2,29.76,WSW,250,10.0,11.0,87,0.00,,,0.31,VWS V14.01,2013-04-03 19:30:00,
2013-04-03 21:31:00,56.0,52.2,29.76,West,261,4.0,10.0,87,0.00,,,0.31,VWS V14.01,2013-04-03 19:31:00,
2013-04-03 21:36:00,56.1,52.3,29.76,WSW,240,4.0,12.0,87,0.00,,,0.31,VWS V14.01,2013-04-03 19:36:00,
2013-04-03 21:40:00,56.1,52.3,29.76,West,279,7.0,12.0,87,0.00,,,0.31,VWS V14.01,2013-04-03 19:40:00,
2013-04-03 21:41:00,56.1,52.3,29.76,West,274,6.0,8.0,87,0.00,,,0.31,VWS V14.01,2013-04-03 19:41:00,
2013-04-03 21:46:00,56.0,52.2,29.76,West,275,3.0,11.0,87,0.00,,,0.31,VWS V14.01,2013-04-03 19:46:00,
2013-04-03 21:50:00,56.0,52.2,29.76,West,273,3.0,11.0,87,0.00,,,0.31,VWS V14.01,2013-04-03 19:50:00,
2013-04-03 21:51:00,56.0,52.2,29.76,WNW,283,4.0,6.0,87,0.00,,,0.31,VWS V14.01,2013-04-03 19:51:00,
2013-04-03 21:57:00,56.0,52.2,29.76,West,272,3.0,14.0,87,0.00,,,0.31,VWS V14.01,2013-04-03 19:57:00,
2013-04-03 22:00:00,56.0,52.2,29.76,WSW,258,5.0,14.0,87,0.00,,,0.31,VWS V14.01,2013-04-03 20:00:00,
2013-04-03 22:02:00,56.0,52.2,29.76,West,277,7.0,7.0,87,0.00,,,0.31,VWS V14.01,2013-04-03 20:02:00,
2013-04-03 22:07:00,56.0,52.2,29.76,West,280,7.0,9.0,87,0.00,,,0.31,VWS V14.01,2013-04-03 20:07:00,
2013-04-03 22:10:00,56.0,52.2,29.77,WNW,302,6.0,11.0,87,0.00,,,0.31,VWS V14.01,2013-04-03 20:10:00,
2013-04-03 22:12:00,55.9,52.1,29.77,WNW,286,7.0,7.0,87,0.00,,,0.31,VWS V14.01,2013-04-03 20:12:00,
2013-04-03 22:17:00,55.8,51.7,29.77,West,269,6.0,7.0,86,0.00,,,0.31,VWS V14.01,2013-04-03 20:17:00,
2013-04-03 22:20:00,56.0,52.2,29.77,WNW,295,10.0,10.0,87,0.00,,,0.31,VWS V14.01,2013-04-03 20:20:00,
2013-04-03 22:22:00,56.0,52.2,29.77,WSW,252,6.0,10.0,87,0.00,,,0.31,VWS V14.01,2013-04-03 20:22:00,
2013-04-03 22:27:00,55.9,51.8,29.77,West,267,7.0,13.0,86,0.00,,,0.31,VWS V14.01,2013-04-03 20:27:00,
2013-04-03 22:30:00,56.0,51.9,29.77,WSW,254,5.0,13.0,86,0.00,,,0.31,VWS V14.01,2013-04-03 20:30:00,
2013-04-03 22:32:00,56.0,51.9,29.77,West,277,3.0,11.0,86,0.00,,,0.31,VWS V14.01,2013-04-03 20:32:00,
2013-04-03 22:37:00,56.0,51.9,29.77,West,269,2.0,11.0,86,0.00,,,0.31,VWS V14.01,2013-04-03 20:37:00,
2013-04-03 22:40:00,55.8,51.7,29.77,NW,306,6.0,11.0,86,0.00,,,0.31,VWS V14.01,2013-04-03 20:40:00,
2013-04-03 22:42:00,55.8,51.7,29.77,WSW,250,8.0,8.0,86,0.00,,,0.31,VWS V14.01,2013-04-03 20:42:00,
2013-04-03 22:47:00,55.7,51.6,29.77,West,269,4.0,10.0,86,0.00,,,0.31,VWS V14.01,2013-04-03 20:47:00,
2013-04-03 22:50:00,55.6,51.5,29.77,West,279,2.0,10.0,86,0.00,,,0.31,VWS V14.01,2013-04-03 20:50:00,
2013-04-03 22:52:00,55.6,51.5,29.77,WNW,285,8.0,10.0,86,0.00,,,0.31,VWS V14.01,2013-04-03 20:52:00,
2013-04-03 22:57:00,55.7,51.6,29.77,WNW,302,8.0,10.0,86,0.00,,,0.31,VWS V14.01,2013-04-03 20:57:00,
2013-04-03 23:00:00,55.7,51.6,29.77,West,278,6.0,10.0,86,0.00,,,0.31,VWS V14.01,2013-04-03 21:00:00,
2013-04-03 23:02:00,55.7,51.6,29.77,West,267,4.0,8.0,86,0.00,,,0.31,VWS V14.01,2013-04-03 21:02:00,
2013-04-03 23:07:00,55.7,51.6,29.77,WNW,289,2.0,10.0,86,0.00,,,0.31,VWS V14.01,2013-04-03 21:07:00,
2013-04-03 23:10:00,55.7,51.6,29.77,West,277,6.0,10.0,86,0.00,,,0.31,VWS V14.01,2013-04-03 21:10:00,
2013-04-03 23:12:00,55.8,51.7,29.77,WSW,244,9.0,9.0,86,0.00,,,0.31,VWS V14.01,2013-04-03 21:12:00,
2013-04-03 23:17:00,55.8,51.7,29.77,WNW,289,6.0,10.0,86,0.00,,,0.31,VWS V14.01,2013-04-03 21:17:00,
2013-04-03 23:20:00,55.7,51.6,29.77,West,275,6.0,10.0,86,0.00,,,0.31,VWS V14.01,2013-04-03 21:20:00,
2013-04-03 23:22:00,55.7,51.6,29.77,West,281,7.0,9.0,86,0.00,,,0.31,VWS V14.01,2013-04-03 21:22:00,
2013-04-03 23:27:00,55.8,51.7,29.77,West,271,8.0,13.0,86,0.00,,,0.31,VWS V14.01,2013-04-03 21:27:00,
2013-04-03 23:30:00,55.7,51.6,29.77,West,281,3.0,13.0,86,0.00,,,0.31,VWS V14.01,2013-04-03 21:30:00,
2013-04-03 23:32:00,55.8,51.7,29.77,WNW,287,5.0,7.0,86,0.00,,,0.31,VWS V14.01,2013-04-03 21:32:00,
2013-04-03 23:37:00,55.7,51.6,29.77,WNW,285,6.0,9.0,86,0.00,,,0.31,VWS V14.01,2013-04-03 21:37:00,
2013-04-03 23:40:00,55.6,51.5,29.77,WNW,286,6.0,10.0,86,0.00,,,0.31,VWS V14.01,2013-04-03 21:40:00,
2013-04-03 23:42:00,55.6,51.5,29.77,WNW,292,10.0,10.0,86,0.00,,,0.31,VWS V14.01,2013-04-03 21:42:00,
2013-04-03 23:47:00,55.6,51.5,29.77,West,280,3.0,10.0,86,0.00,,,0.31,VWS V14.01,2013-04-03 21:47:00,
2013-04-03 23:50:00,55.5,51.4,29.77,WNW,294,6.0,10.0,86,0.00,,,0.31,VWS V14.01,2013-04-03 21:50:00,
2013-04-03 23:52:00,55.5,51.4,29.77,WNW,292,6.0,9.0,86,0.00,,,0.31,VWS V14.01,2013-04-03 21:52:00,
2013-04-03 23:57:00,55.4,51.3,29.77,WNW,297,5.0,9.0,86,0.00,,,0.31,VWS V14.01,2013-04-03 21:57:00,